Lafayette, LA

11:54 PM CST on February 24, 2017 (GMT -0600)
Lafayette Regional

Weather History for KLFT - April, 2014

Change the Weather History Date:

Wednesday, April 9, 2014

  Actual Average Record
Temperature  
Mean Temperature 59 °F 67 °F  
Max Temperature 72 °F 78 °F 89 °F (1893)
Min Temperature 46 °F 57 °F 35 °F (1916)
Degree Days  
Heating Degree Days 6 2  
Month to date heating degree days 15 21  
Since 1 July heating degree days 1910 1401  
Cooling Degree Days 0 4  
Month to date cooling degree days 28 34  
Year to date cooling degree days 66 129  
Growing Degree Days 9 (Base 50)    
Moisture  
Dew Point 42 °F    
Average Humidity 57    
Maximum Humidity 86    
Minimum Humidity 27    
Precipitation  
Precipitation 0.00 in 0.12 in 2.74 in (1936)
Month to date precipitation 1.06 1.05  
Year to date precipitation 11.16 14.96  
Snow  
Snow 0.00 in 0.00 in 0.00 in ()
Month to date snowfall 0.0 0.0  
Since 1 July snowfall 0.8 T  
Snow Depth 0.00 in    
Sea Level Pressure  
Sea Level Pressure 30.21 in    
Wind  
Wind Speed 6 mph (WNW)    
Max Wind Speed 15 mph    
Max Gust Speed 20 mph    
Visibility 10 miles    
Events      
T = Trace of Precipitation, MM = Missing Value Source: NWS Daily Summary

Daily Weather History Graph

Daily Weather History Graph

Search for Another Location

Airport or City:

Trip Planner

Search our weather history database for the weather conditions in past years. The results will help you decide how hot, cold, wet, or windy it might be!

Date:

Astronomy

Apr. 09, 2014 Rise Set
Actual Time 6:47 AM CDT 7:31 PM CDT
Civil Twilight 6:23 AM CDT 7:56 PM CDT
Nautical Twilight 5:54 AM CDT 8:24 PM CDT
Astronomical Twilight 5:25 AM CDT 8:54 PM CDT
Moon 2:41 PM CDT (4/9) 3:15 AM CDT (4/9)
Length of Visible Light 13h 32m
Length of Day
12h 44m
Waxing Gibbous, 72% of the Moon is Illuminated
Apr 9
Waxing Gibbous
Apr 15
Full
Apr 22
Last Quarter
Apr 29
New
May 6
First Quarter

Hourly Weather History & Observations

Time (CDT) Temp. Dew Point Humidity Pressure Visibility Wind Dir Wind Speed Gust Speed Precip Events Conditions
12:53 AM 51.1 °F 46.0 °F 83% 30.16 in 10.0 mi West 4.6 mph - N/A   Clear
1:53 AM 51.1 °F 46.0 °F 83% 30.17 in 10.0 mi WNW 5.8 mph - N/A   Clear
2:53 AM 50.0 °F 44.1 °F 80% 30.17 in 10.0 mi West 4.6 mph - N/A   Clear
3:53 AM 48.9 °F 44.1 °F 83% 30.18 in 10.0 mi WNW 4.6 mph - N/A   Clear
4:53 AM 48.9 °F 43.0 °F 80% 30.18 in 10.0 mi West 4.6 mph - N/A   Clear
5:53 AM 48.0 °F 42.1 °F 80% 30.21 in 10.0 mi WNW 4.6 mph - N/A   Clear
6:53 AM 46.9 °F 42.1 °F 83% 30.22 in 10.0 mi NW 4.6 mph - N/A   Clear
7:53 AM 52.0 °F 43.0 °F 71% 30.24 in 10.0 mi NNW 6.9 mph - N/A   Clear
8:53 AM 57.0 °F 42.1 °F 57% 30.25 in 10.0 mi North 8.1 mph - N/A   Clear
9:53 AM 62.1 °F 42.1 °F 48% 30.27 in 10.0 mi North 6.9 mph - N/A   Clear
10:53 AM 64.0 °F 42.1 °F 45% 30.29 in 10.0 mi NNE 8.1 mph - N/A   Clear
11:53 AM 64.9 °F 35.1 °F 33% 30.28 in 10.0 mi Calm Calm - N/A   Clear
12:53 PM 66.9 °F 37.0 °F 33% 30.27 in 10.0 mi NW 6.9 mph - N/A   Clear
1:53 PM 70.0 °F 39.0 °F 32% 30.25 in 10.0 mi NW 8.1 mph - N/A   Clear
2:53 PM 71.1 °F 35.1 °F 27% 30.23 in 10.0 mi NNW 9.2 mph 16.1 mph N/A   Clear
3:53 PM 71.1 °F 35.1 °F 27% 30.21 in 10.0 mi NNW 9.2 mph - N/A   Clear
4:53 PM 72.0 °F 37.0 °F 28% 30.19 in 10.0 mi NW 10.4 mph - N/A   Clear
5:53 PM 71.1 °F 36.0 °F 28% 30.18 in 10.0 mi NNW 3.5 mph - N/A   Clear
6:53 PM 69.1 °F 39.0 °F 33% 30.17 in 10.0 mi WSW 3.5 mph - N/A   Clear
7:53 PM 63.0 °F 48.9 °F 60% 30.18 in 10.0 mi South 3.5 mph - N/A   Clear
8:53 PM 57.9 °F 54.0 °F 87% 30.19 in 10.0 mi South 3.5 mph - N/A   Clear
9:53 PM 57.9 °F 46.9 °F 67% 30.22 in 10.0 mi SW 8.1 mph - N/A   Clear
10:53 PM 55.9 °F 46.9 °F 72% 30.22 in 10.0 mi SSW 4.6 mph - N/A   Clear
11:53 PM 55.0 °F 48.0 °F 77% 30.22 in 10.0 mi Calm Calm - N/A   Clear